Regional Weather Roundup
Issued by NWS

Home | Current Version | Previous Version | Text Only | Print | Product List | Glossary On
Versions: 1 2 3 4 5 6 7 8 9 10 11 12 13 14 15 16 17 18 19 20 21 22 23 24 25 26 27 28 29 30 31 32 33 34 35 36 37 38 39 40 41 42 43 44 45 46 47 48 49 50
000
ASHW40 PHFO 170943
RWRHI

WEATHER ROUNDUP FOR HAWAII
NATIONAL WEATHER SERVICE HONOLULU HI
1100 PM HST TUE SEP 16 2014

THIS IS AN AUTOMATED REPORT THAT HAS NOT BEEN QUALITY CONTROLLED.

NOTE..."FAIR" INDICATES FEW OR NO CLOUDS BELOW 12,000 FEET WITH NO
SIGNIFICANT WEATHER AND/OR OBSTRUCTIONS TO VISIBILITY.

* - THESE SITES REPORT LIMITED FIELDS

HIZ001>004-171000-
KAUAI-NIIHAU-

CITY           SKY/WX    TMP DP  RH WIND       PRES   REMARKS
LIHUE APT      MOCLDY    80  72  76 NE10      29.99S
PORT ALLEN*      N/A     79 N/A N/A E3          N/A
POIPU*           N/A     81 N/A N/A NE5         N/A
PRINCEVILLE*   NOT AVBL
KOKOLE POINT*  NOT AVBL
MOLOAA DAIRY*  NOT AVBL
WAIMEA HTS*      N/A     79  68  69 CALM        N/A
PUU OPAE*        N/A     72  63  73 CALM        N/A
PUU LUA*       NOT AVBL
MAKAHA RIDGE*  NOT AVBL
$$

HIZ005>011-171000-
OAHU-

CITY           SKY/WX    TMP DP  RH WIND       PRES   REMARKS
HONOLULU       MOCLDY    81  70  69 NE12      29.97R
KALAELOA       MOCLDY    80  70  71 NE3       29.97S
KANEOHE MCB    CLOUDY    73  73 100 CALM      29.97F
WHEELER FIELD  CLOUDY    73  72  94 SW3       29.99S
BELLOWS*         N/A    N/A N/A N/A SW5         N/A
KAHUKU*          N/A    N/A N/A N/A NE5G10      N/A
WHEELER*       NOT AVBL
WAIANAE HARBOR NOT AVBL
DILLINGHAM*      N/A     75  70  83 SE1         N/A
KAHUKU TRN*      N/A     77  72  83 E7G14       N/A
KAWAILOA*      NOT AVBL
KII*             N/A     81  73  78 E12         N/A
MAKUA RANGE*     N/A     79  70  73 E8          N/A
OAHU FOREST NW   N/A     68  68 100 N12G18      N/A
SCHOFIELD BRK*   N/A     73  68  83 MISG        N/A
SCHOFIELD S*   NOT AVBL
WAIANAE VLY*     N/A     77  68  73 SE3G17      N/A
KUAOKALA*        N/A     75  70  83 CALM        N/A
HONOULIUULI*   NOT AVBL
MOKUOLOE IS*     N/A    N/A N/A N/A MISG        N/A
PALEHUA*         N/A     81  70  69 CALM        N/A
WAIAWA PHB*    NOT AVBL
$$

HIZ012>013-171000-
MOLOKAI-

CITY           SKY/WX    TMP DP  RH WIND       PRES   REMARKS
MOLOKAI AIRPT  CLEAR     78  73  84 N3        29.98S
KALAUPAPA      NOT AVBL
MAKAPULAPAI*     N/A     79  72  78 E10G17      N/A
MOLOKAI 1*       N/A     68  64  88 E3G9        N/A
PUU ALII*        N/A     61  60  97 E1          N/A
$$

HIZ016-171000-
KAHOOLAWE-

CITY           SKY/WX    TMP DP  RH WIND       PRES   REMARKS
KAHOOLAWE*       N/A     72 N/A N/A NE7         N/A
HAKIOAWA*      NOT AVBL
HONOKANAIA*    NOT AVBL
KANELOA*         N/A     75  70  83 E5G14       N/A
KEALIALALO*    NOT AVBL
LUA MAKIKA*    NOT AVBL
$$

HIZ014>015-171000-
LANAI-

CITY           SKY/WX    TMP DP  RH WIND       PRES   REMARKS
LANAI CITY       N/A    N/A N/A N/A MISG        N/A
LANAI 1*         N/A     73  73 100 NE14G25     N/A
$$

HIZ017>028-171000-
MAUI-

CITY           SKY/WX    TMP DP  RH WIND       PRES   REMARKS
KAHULUI        PTCLDY    78  68  71 NE7       29.96S
KAPALUA-W MAUI NOT AVBL
HANA AIRPORT   CLOUDY    73  72  94 E3        30.00S
HANA*            N/A     75 N/A N/A S3          N/A
HALEAKALA SUMM   N/A     48  23  37 E10         N/A
MAALAEA BAY*   NOT AVBL
HALEAKALA*     NOT AVBL
KAUPO GAP*     NOT AVBL
KULA 1*          N/A     53  48  83 SE6         N/A
$$

HIZ023>026-171000-
BIG ISLAND OF HAWAII COAST AND LOWER SLOPES-

CITY           SKY/WX    TMP DP  RH WIND       PRES   REMARKS
KAILUA KONA    CLEAR     82  66  58 N3        29.93F
HILO           CLEAR     73  67  81 SW6       29.97S
HONOKAA*       NOT AVBL
KAWAIHAE MWT*  NOT AVBL
KAWAIHAE*        N/A     81 N/A N/A W8          N/A
SOUTH POINT*   NOT AVBL
UPOLU AIRPORT* NOT AVBL
KAMUELA*       SUNNY     59  55  88 NE12      30.08S
HAKALAU*       NOT AVBL
KALOKO-HONOKO*   N/A     79  70  73 W3        29.92F
PALI 2*        NOT AVBL
KEALAKOMO*     NOT AVBL
KAUPULEHU*       N/A     73  55  53 E6G13       N/A
KAPAPALA*        N/A     70  69  95 CALM        N/A
LOWER KAHUKU*  NOT AVBL
PUHE CS*       NOT AVBL
PUHO CS*         N/A     77  68  72 NE3         N/A
PTA KEAMUKU*     N/A     61  54  77 S7          N/A
WAIKOLOA*        N/A     73  54  49 E12G18      N/A
$$

HIZ027>028-171000-
BIG ISLAND OF HAWAII INTERIOR AND SUMMMITS-

CITY           SKY/WX    TMP DP  RH WIND       PRES   REMARKS
BRADSHAW FIELD PTCLDY    55  54  94 SE5       30.33S
MK VISITOR CEN NOT AVBL
MAUNA KEA*       N/A     41  -4  15 SE2         N/A
MAUNA LOA*     NOT AVBL
MAUNA LOA 1*     N/A    N/A N/A N/A MISG        N/A
PTA KIPUKA*    NOT AVBL
PTA RANGE 17*  NOT AVBL
PTA WEST*        N/A     55  54  94 SE9         N/A
NENE CABIN*    NOT AVBL
AHUMOA*          N/A     50  43  78 E6          N/A
PTA PORTABLE*  NOT AVBL
PUU MALI*      NOT AVBL
$$

HIC003-171000-
NORTHWEST ISLANDS-

CITY           SKY/WX    TMP DP  RH WIND       PRES   REMARKS
MIDWAY ISLAND  CLEAR     81  73  78 E7        30.13S
MIDWAY NOS*    NOT AVBL
FRENCH FRIGATE NOT AVBL
$$

PHZ110>124-180-171000-
BUOY REPORTS

STATION/POSITION TIME  TEMP    WIND        PRES    WAVE   SWELL
                       AIR SEA DIR/SP/G            HT/PER HT/DIR
                 (UTC) (F)     (DEG/KT/KT) (MB)    (FT/S) (FT/D)
BUOY 51001       NOT AVBL
BUOY 51101       NOT AVBL
BUOY 51100       0900   80 81   50/ 10/ 12 1014.7F
BUOY 51003       0900   82 83   70/ 10/ 12 1014.3F   5/14   5
BUOY 51004       0757   80 81   70/  8/ 10 1013.7F   6/14   5/190
BARBERS PT BUOY  NOT AVBL
WAIMEA BAY BUOY  0900      82                N/A     7/14
KAILUA BAY BUOY  0900      83                N/A     5/11   3/ 30
LANAI BUOY       NOT AVBL
BARBERS PT 2     0900      83                N/A     4/14   3/190
PAUWELA MAUI     0900      81                N/A     5/ 9   2/340
HILO             0900      82                N/A     5/13   3/340
KANEOHE BAY BUOY NOT AVBL
HANALEI KAUAI    NOT AVBL
KAHULUI HARBOR   0900   80 84  360/  5/  9 1014.7S
HONOLULU HARBOR  0900   79      40/  3/  5 1014.9F
KILO NALU        NOT AVBL
HILO HARBOR      0900   74     210/  5/  6 1014.1F
MOKUOLOE         0900   77 86  190/  3/  5 1015.1F
NAWILIWILI       0900      84                N/A
WHOTS BUOY       NOT AVBL
BUOY 51028       NOT AVBL
$$

......................KEY........................................
  SKY/WX - SKY CONDITIONS/PRESENT WEATHER
  TMP    - TEMPERATURE IN FAHRENHEIT
  DWPT   - DEWPOINT IN FAHRENHEIT
  RH     - RELATIVE HUMIDITY IN PERCENT
  WIND   - DIRECTION AND SPEED /MPH FOR ISLANDS...KTS FOR BUOYS/
  PRES   - MEAN SEA LEVEL PRESSURE IN INCHES OF HG
  VSB    - VISIBILITY IN MILES
  HX     - HEAT INDEX
  WCI    - WIND CHILL INDEX
  VRB    - VARIABLE WIND DIRECTION
  N/A    - NOT AVAILABLE


USA.gov is the U.S. government's official web portal to all federal, state and local government web resources and services.